Location: Azul
(36.7830°S, 59.8500°W)
Time: 10:22:26
(UTC-03:00)

ISS - Pass Details

Date: 15 August 2019
Orbit: 410 x 420 km, 51.6° (Epoch: 21 August)

Event Time Altitude Azimuth Distance (km) Brightness Sun altitude
Exits shadow 05:55:52 29° 15° (NNE) 797 -2.3 -21.9°
Drops below altitude 10° 05:57:45 10° 31° (NNE) 1,487 -0.6 -21.5°
Sets 05:59:52 0° 36° (NE) 2,343 0.6 -21.1°
